Tracking 35237 objects as of 6-Sep-2026
HD Live streaming from Space Station
objects crossing your sky now

STARLINK-3671

Track STARLINK-3671 now!
10-day predictions
STARLINK-3671 is classified as:


NORAD ID: 51972
Int'l Code: 2022-025S
Launch date: March 9, 2022
Source: United States (US)
Launch site: AIR FORCE EASTERN TEST RANGE (AFETR)
Your satellite tracking list
Your tracking list is empty




NASA's NSSDC Master Catalog

Two Line Element Set (TLE):
1 51972U 22025S   26249.39074491  .00000094  00000-0  14800-4 0  9995
2 51972  53.1583 276.4954 0001169  78.6982 281.4151 15.31698778248512
Source of the keplerian elements: AFSPC